Flag for Canada

Past Weather in Lethbridge, Alberta, Canada — Yesterday and Last 2 Weeks

Now
64 °F

Passing clouds.


Feels Like: 64 °F
Forecast: 83 / 49 °F
Wind: 9 mph from East

Location: Lethbridge

Current Time: Jul 15, 2020 at 10:58:11 pm

Latest Report: Jul 15, 2020 at 10:00 pm


Visibility: 60 mi

Pressure: 29.93 "Hg (27.02 "Hg at 872m altitude)

Humidity: 68%

Dew Point: 54 °F

Location of LethbridgeLocation

Past Weather in Lethbridge — Graph

°F

Lethbridge Temperature Yesterday

Maximum temperature yesterday: 75 °F (at 5:25 pm)
Minimum temperature yesterday: 41 °F (at 5:00 am)
Average temperature yesterday: 60 °F

High & Low Weather Summary for the Past Weeks

 TemperatureHumidityPressure
High82 °F (Jul 11, 5:00 pm)100% (Jul 1, 6:00 am)30.11 "Hg (Jul 1, 6:00 am)
Low41 °F (Jul 3, 5:00 am)25% (Jul 14, 5:25 pm)29.58 "Hg (Jul 1, 12:00 pm)
Average61 °F65%29.89 "Hg
* Reported Jun 30 9:00 pm — Jul 15 9:00 pm, Lethbridge. Weather by CustomWeather, © 2020

Note: Actual official high and low records may vary slightly from our data, if they occured in-between our weather recording intervals... More about our weather records

Lethbridge Weather History for the Previous 24 Hours

Scroll right to see more
 ConditionsComfort  
Time TempWeatherWind HumidityBarometerVisibility
9:00 pm
Wed, Jul 15
68 °FScattered clouds.8 mph64%29.91 "Hg60 mi
8:00 pm70 °FBroken clouds.9 mph64%29.90 "Hg60 mi
7:00 pm77 °FPartly sunny.7 mph42%29.90 "Hg50 mi
6:00 pm77 °FPartly sunny.13 mph36%29.90 "Hg60 mi
5:00 pm77 °FPartly sunny.No wind32%29.91 "Hg60 mi
4:00 pm79 °FScattered clouds.6 mph30%29.92 "Hg60 mi
3:00 pm79 °FScattered clouds.6 mph30%29.92 "Hg60 mi
2:00 pm77 °FPartly sunny.12 mph32%29.93 "Hg60 mi
1:00 pm77 °FPartly sunny.13 mph32%29.93 "Hg60 mi
12:00 pm75 °FPartly sunny.15 mph36%29.95 "Hg60 mi
11:00 am73 °FPartly sunny.13 mph38%29.94 "Hg60 mi
10:00 am68 °FPartly sunny.10 mph46%29.95 "Hg60 mi
9:00 am64 °FPartly sunny.8 mph49%29.95 "Hg60 mi
8:00 am59 °FPartly sunny.7 mph55%29.94 "Hg60 mi
7:00 am52 °FPartly sunny.8 mph72%29.94 "Hg60 mi
6:00 am50 °FScattered clouds.8 mph76%29.94 "Hg60 mi
5:00 am48 °FClear.8 mph76%29.95 "Hg9 mi
4:00 am50 °FClear.8 mph71%29.94 "Hg9 mi
3:00 am50 °FClear.7 mph67%29.95 "Hg9 mi
2:00 am54 °FClear.7 mph63%29.95 "Hg9 mi
1:00 am57 °FClear.13 mph51%29.94 "Hg9 mi
12:00 am54 °FClear.10 mph63%29.95 "Hg9 mi
11:00 pm
Tue, Jul 14
55 °FClear.7 mph59%29.95 "Hg9 mi
10:00 pm57 °FPassing clouds.9 mph63%29.94 "Hg40 mi
Weather by CustomWeather, © 2020

See weather overview